Wind_Speed
15 15 16 17 17 17 17 16 16 15 14 14 13 13 12 12 12 11 11 11 10 10 9 8 8 7 7 6 6 6 6 6 6 7 7 7 8 9 10 11 12 12 13 14 14 15 15 16 17
16 15 16 16 16 15 16 16 16 15 14 14 13 12 12 11 11 11 10 10 10 9 9 8 7 7 6 6 6 6 6 6 7 7 7 8 9 10 11 12 13 14 14 15 16 16 16 17 18
17 17 16 16 15 15 15 16 16 15 14 13 12 11 11 10 10 10 10 10 9 9 8 8 7 7 6 6 6 6 7 7 7 8 8 9 10 11 13 14 14 15 15 16 16 17 18 18 19
19 18 17 16 15 15 16 16 15 15 14 13 13 11 10 10 10 10 10 10 9 9 8 8 8 7 7 7 7 7 7 8 8 9 10 11 12 13 14 15 16 16 16 17 17 18 19 20 20
22 20 19 17 16 16 17 16 15 15 14 14 13 12 11 10 10 9 9 10 9 9 9 8 8 7 7 7 8 8 8 8 9 10 11 12 13 14 15 16 16 17 18 18 19 20 20 21 22
24 23 20 18 18 18 17 17 16 15 15 14 14 13 12 11 10 10 9 9 9 9 9 8 8 8 8 8 8 9 9 10 10 11 12 13 14 15 15 16 17 18 19 20 21 21 22 23 23
26 25 23 21 20 19 18 18 17 16 15 15 14 13 12 11 11 10 10 9 9 9 8 8 8 9 9 9 9 10 10 11 12 13 14 14 15 16 16 17 18 19 20 21 22 23 24 24 25
29 28 25 23 21 21 20 19 18 18 17 16 15 14 13 12 12 11 11 10 9 9 9 9 9 9 9 10 10 11 11 12 13 14 15 16 16 17 18 19 20 21 22 23 24 25 25 26 27
33 31 28 25 24 23 22 21 20 19 18 17 16 16 15 13 12 12 11 11 10 10 10 10 10 10 10 11 11 12 13 14 15 15 16 17 18 19 20 20 21 22 23 24 25 26 27 27 28
36 33 29 27 27 26 25 24 22 21 20 19 17 17 16 15 14 13 13 13 12 12 12 12 12 12 12 12 13 14 15 15 16 16 17 18 19 20 21 22 23 24 25 26 27 27 28 28 29
39 35 32 31 30 29 28 26 25 23 22 20 20 19 18 17 16 15 14 14 14 13 13 13 13 13 13 14 15 15 16 17 17 18 19 20 22 23 23 24 25 26 27 28 29 29 29 30 31
41 38 36 34 33 32 30 29 27 25 23 23 22 21 20 18 17 17 16 15 15 15 14 14 14 15 15 16 16 17 18 18 19 20 21 22 23 24 25 26 27 28 29 29 30 31 31 32 32
44 41 39 38 37 35 33 31 29 27 25 24 23 22 21 20 19 18 17 17 16 16 16 16 16 17 17 17 18 19 19 20 21 22 23 24 25 26 27 28 29 29 30 31 31 32 32 33 33
47 45 43 42 40 38 36 34 32 29 28 27 25 24 23 22 21 20 19 18 18 18 17 18 18 18 19 19 20 21 21 22 23 24 25 26 27 28 28 29 30 30 31 32 32 33 33 34 34
50 48 47 45 43 40 39 38 34 31 31 30 28 26 24 24 23 21 21 20 20 19 19 19 20 20 21 22 22 23 23 24 25 26 27 28 29 30 30 30 31 31 32 33 33 34 34 35 35
53 52 50 47 45 44 43 39 35 35 34 32 30 29 27 26 25 24 23 22 22 22 22 22 22 22 23 24 24 25 25 26 27 28 29 29 30 31 31 32 32 32 33 33 34 34 34 35 35
56 55 51 48 47 47 47 41 38 38 37 35 33 31 30 28 27 26 25 25 24 24 24 24 24 25 26 26 26 26 27 28 29 30 30 30 31 31 32 32 32 33 34 34 34 35 35 36 36
56 54 52 49 48 48 48 44 41 41 40 38 36 34 32 30 29 29 28 27 27 27 27 27 27 27 28 27 27 28 28 29 30 31 31 31 31 32 32 33 33 34 34 34 35 35 36 36 36
54 54 52 50 50 51 50 48 44 44 44 41 38 37 35 33 32 32 31 30 29 29 29 29 29 29 29 29 29 29 30 31 31 32 32 32 32 33 33 34 34 34 34 35 36 36 36 36 36
55 55 54 52 52 53 53 51 48 47 46 43 41 39 37 36 35 34 33 32 31 31 30 30 30 30 30 30 31 31 31 31 31 32 32 33 33 33 34 34 34 34 34 35 36 36 36 36 36
57 55 53 53 52 53 55 55 51 48 47 45 43 41 39 38 37 36 35 34 33 32 32 31 31 32 32 32 33 32 32 32 32 32 33 34 34 34 34 35 35 35 35 35 35 35 36 36 36
57 53 52 53 54 55 56 57 53 50 48 46 44 42 41 40 39 38 37 36 35 34 34 33 33 33 33 33 33 33 33 32 33 34 34 35 35 35 35 35 35 35 35 35 35 36 36 36 36
55 52 52 53 55 56 57 59 56 51 49 47 44 43 42 41 41 40 38 37 36 36 35 34 34 34 34 34 34 34 33 34 35 35 35 35 35 35 36 36 35 35 35 35 35 36 36 36 37
55 54 54 54 55 59 56 58 58 52 49 47 45 44 44 43 42 41 39 38 37 36 36 35 35 34 34 34 34 34 34 34 35 35 35 35 35 36 36 36 36 35 35 36 36 36 37 37 38
57 56 55 56 58 60 56 58 58 50 47 45 45 45 45 44 43 41 40 39 38 37 36 36 35 35 35 34 34 34 34 35 35 35 35 35 35 35 36 36 35 35 35 36 36 36 37 38 38
59 57 57 57 57 58 57 57 55 49 44 43 44 44 45 44 43 41 40 39 38 37 37 36 36 35 35 34 34 34 35 35 35 35 35 35 35 35 36 35 35 35 35 36 36 37 38 38 39
59 59 56 55 56 57 58 55 51 48 43 42 42 43 43 43 42 40 39 38 38 37 37 36 36 35 35 35 35 35 35 35 35 35 35 35 35 35 35 35 35 35 35 36 37 37 38 38 39
58 57 58 58 57 57 57 54 49 44 41 40 40 40 40 40 40 39 38 37 37 37 36 36 36 35 35 35 35 35 35 35 35 35 34 34 34 35 35 35 35 35 36 37 37 38 38 39 39
59 58 58 57 57 57 56 53 46 42 39 37 37 38 38 38 38 38 38 37 37 36 36 36 36 36 36 35 35 35 35 34 34 34 34 34 35 35 35 36 36 36 37 37 38 38 39 39 40
57 57 57 56 55 55 54 51 46 42 38 36 36 37 37 37 37 37 37 37 37 37 37 37 36 36 35 35 35 34 34 34 34 34 34 35 35 35 35 36 36 37 37 38 38 39 40 40 41
Wind_Direction
220 220 219 218 218 217 216 217 217 217 216 216 218 219 217 215 217 218 218 220 223 224 226 228 233 237 243 251 260 268 276 282 288 292 295 299 301 303 305 306 306 306 306 306 304 303 302 302 301
222 221 220 219 217 215 215 216 216 215 214 215 215 213 211 212 215 218 218 219 220 221 222 224 227 232 241 251 261 270 278 285 293 296 298 300 301 303 304 305 306 306 305 305 304 303 302 302 301
223 222 221 220 217 214 214 214 212 210 212 213 212 211 210 212 215 218 218 217 219 219 221 224 227 232 241 252 262 272 279 285 290 294 296 298 300 302 303 304 304 304 304 304 303 302 302 301 300
225 223 222 220 217 215 214 212 209 208 210 211 212 212 211 212 214 217 220 222 224 225 225 227 231 236 243 254 265 273 279 283 287 292 296 299 300 300 301 302 302 302 302 302 301 300 300 300 299
227 225 223 220 218 216 213 211 208 207 209 212 214 214 214 213 214 217 219 222 224 226 229 232 235 239 247 259 270 276 280 284 289 294 298 300 301 301 300 300 300 300 300 300 300 299 299 299 298
228 226 224 219 217 216 213 211 210 210 209 211 213 214 215 215 216 218 218 219 221 224 228 234 239 245 253 263 270 276 281 285 290 294 297 299 301 302 302 301 301 300 300 299 299 298 298 298 297
228 226 223 219 218 218 215 214 213 213 213 213 213 214 215 215 216 218 219 218 220 225 231 238 245 251 258 267 272 276 281 286 290 292 295 297 299 300 301 301 301 301 300 299 298 298 297 297 297
228 226 223 221 220 219 218 217 215 215 215 215 214 214 217 217 217 218 219 220 223 229 236 246 252 256 263 270 275 279 282 286 290 292 294 297 298 299 300 300 300 300 299 299 299 298 298 297 297
228 226 224 223 223 222 220 219 218 216 217 216 216 216 218 218 220 222 223 226 231 237 245 252 255 259 265 270 276 280 284 287 290 293 295 296 298 299 299 299 299 299 299 299 299 299 299 298 298
228 227 224 225 225 225 223 222 220 219 218 218 219 220 220 221 224 228 231 235 239 244 249 254 259 263 266 271 276 280 285 288 291 293 294 295 297 298 299 299 298 299 299 299 299 299 298 298 297
229 227 225 226 225 226 225 225 223 221 220 220 221 222 223 226 229 233 236 240 244 248 252 257 261 265 269 274 278 282 285 288 290 292 293 295 296 297 297 297 297 298 298 299 299 298 298 297 297
229 227 227 226 226 227 227 226 225 223 221 222 222 224 226 229 232 235 238 242 246 250 254 259 263 266 270 275 279 283 285 288 290 291 292 294 295 296 296 296 296 297 297 298 298 298 297 297 296
229 227 227 227 227 227 228 227 226 225 224 224 224 226 229 232 234 237 240 243 247 252 257 261 264 268 272 276 280 283 286 288 290 291 292 293 294 295 296 297 297 297 297 297 297 297 297 297 297
230 228 228 227 227 227 229 229 228 228 228 228 227 228 230 233 236 239 242 245 250 254 258 263 267 270 274 277 280 283 286 288 290 291 292 293 294 296 296 297 297 298 297 297 298 298 298 298 297
230 229 228 228 228 229 230 229 229 230 232 232 231 231 232 235 237 240 243 247 252 256 260 264 268 271 274 276 280 283 285 287 289 291 292 293 294 296 296 296 297 297 298 298 298 298 298 298 297
230 230 229 228 230 230 232 230 231 232 234 234 235 235 235 237 239 242 245 248 252 257 261 265 269 271 274 277 280 282 284 287 289 290 291 292 294 295 295 296 296 297 297 298 298 298 298 298 298
229 230 230 229 230 232 233 231 231 234 235 236 236 237 238 240 242 245 247 250 253 258 261 265 268 272 275 278 280 282 284 287 289 290 291 292 293 294 295 295 295 296 297 298 298 298 298 298 298
230 231 231 231 231 233 234 232 231 235 236 236 237 239 240 242 245 247 249 252 255 259 262 265 269 272 275 278 281 283 285 286 288 290 291 291 292 293 294 294 295 296 297 297 297 297 297 297 297
232 232 232 232 233 234 235 234 232 234 236 236 237 239 241 243 246 249 252 254 256 259 262 265 269 272 275 277 279 282 284 286 288 289 290 290 291 292 293 293 294 296 296 296 296 296 297 297 297
231 232 232 232 233 235 235 235 233 234 237 237 238 240 241 243 247 251 254 256 258 260 262 265 268 271 273 276 278 281 283 286 287 288 289 289 289 291 292 293 294 295 295 295 295 295 296 297 298
231 231 232 234 235 237 237 235 234 234 237 238 239 241 243 245 248 251 254 256 258 260 262 265 267 270 272 275 277 280 282 284 286 286 287 288 289 290 291 292 293 294 294 294 295 295 296 297 298
231 232 233 234 235 237 238 238 233 235 236 238 239 241 244 246 248 251 253 255 257 259 261 264 266 269 271 274 276 278 281 282 283 285 286 287 288 289 289 290 292 292 293 293 294 295 296 297 298
230 231 233 234 236 237 237 239 232 234 236 238 240 242 244 247 249 251 253 255 257 259 261 264 266 268 270 273 275 276 278 280 282 283 284 285 286 287 288 289 291 292 293 294 295 295 296 297 298
227 229 231 234 235 237 235 240 236 232 236 239 241 244 245 247 249 252 253 254 256 258 261 263 265 267 269 271 273 275 277 279 280 282 283 284 286 287 288 289 290 291 292 293 294 295 296 297 298
223 225 228 231 233 236 235 239 239 235 236 239 241 244 245 247 249 251 253 254 256 258 260 262 264 266 268 269 271 274 276 278 279 281 282 283 285 286 287 289 290 291 292 293 294 296 296 297 297
224 225 228 231 234 237 237 239 240 238 236 237 240 242 245 247 248 250 252 254 256 258 259 261 263 265 267 269 271 273 275 277 279 280 281 283 284 285 286 288 289 291 291 293 294 296 296 296 297
224 226 228 232 235 237 239 239 239 239 237 236 238 241 244 246 247 249 250 252 254 256 258 260 262 264 266 269 271 272 274 276 278 279 281 282 283 284 285 286 288 290 291 292 294 295 296 297 298
224 226 228 230 233 236 239 238 237 238 239 237 237 239 242 244 246 248 249 250 252 254 256 259 261 264 266 268 270 272 274 275 277 279 280 281 282 283 284 286 288 289 290 292 293 295 296 297 298
223 224 227 231 234 236 238 238 237 238 238 237 236 238 240 242 244 247 249 251 252 254 257 259 261 263 265 267 269 271 272 274 276 277 278 280 282 283 284 286 287 289 290 292 293 294 295 296 297
226 227 228 230 234 235 237 236 235 236 237 236 236 237 238 241 243 245 247 249 251 253 256 258 260 262 264 266 268 269 271 273 275 277 278 279 281 283 284 286 288 289 290 292 293 294 295 296 296
Height
5833 5834 5836 5838 5840 5841 5843 5845 5846 5848 5850 5851 5853 5854 5855 5857 5859 5862 5861 5861 5862 5863 5864 5865 5866 5867 5868 5868 5869 5869 5869 5869 5870 5870 5870 5870 5869 5869 5869 5869 5869 5868 5868 5868 5867 5867 5866 5866 5865
5831 5832 5834 5836 5837 5839 5842 5843 5845 5846 5848 5849 5850 5852 5853 5855 5856 5858 5858 5859 5861 5862 5863 5864 5865 5866 5866 5867 5867 5868 5868 5868 5868 5868 5868 5868 5868 5868 5867 5867 5867 5867 5866 5865 5865 5864 5863 5863 5862
5828 5830 5832 5833 5835 5837 5839 5841 5842 5844 5846 5847 5849 5850 5852 5853 5854 5856 5857 5858 5860 5861 5862 5863 5863 5864 5865 5865 5866 5866 5866 5867 5867 5866 5866 5866 5866 5866 5865 5865 5865 5864 5864 5863 5862 5861 5860 5860 5859
5826 5827 5829 5832 5833 5835 5837 5838 5840 5842 5844 5846 5847 5849 5850 5852 5853 5854 5855 5857 5858 5859 5860 5861 5862 5863 5863 5864 5864 5865 5865 5865 5865 5865 5864 5864 5864 5864 5863 5863 5862 5862 5861 5860 5859 5858 5857 5856 5855
5822 5824 5826 5829 5831 5832 5834 5836 5838 5840 5842 5844 5846 5847 5849 5850 5851 5852 5854 5855 5856 5858 5859 5860 5860 5861 5862 5862 5863 5863 5863 5863 5863 5863 5862 5862 5862 5861 5861 5860 5860 5859 5858 5857 5856 5855 5854 5853 5852
5818 5820 5823 5826 5828 5829 5831 5834 5836 5838 5840 5842 5844 5845 5847 5848 5849 5851 5852 5853 5855 5856 5857 5858 5859 5859 5860 5860 5861 5861 5861 5861 5861 5861 5860 5860 5859 5859 5858 5857 5857 5856 5855 5854 5853 5852 5850 5849 5848
5814 5816 5819 5822 5824 5826 5829 5831 5834 5836 5838 5840 5841 5843 5845 5846 5848 5849 5850 5852 5853 5854 5855 5856 5857 5858 5858 5858 5859 5859 5859 5858 5858 5858 5858 5857 5857 5856 5855 5854 5854 5853 5852 5850 5849 5848 5846 5845 5843
5808 5812 5815 5818 5820 5823 5826 5828 5831 5833 5835 5837 5839 5841 5842 5844 5845 5847 5848 5850 5851 5852 5853 5854 5855 5855 5856 5856 5856 5856 5856 5856 5856 5855 5855 5854 5854 5853 5852 5851 5850 5849 5848 5846 5845 5844 5842 5840 5839
5802 5807 5810 5814 5817 5819 5822 5824 5827 5830 5832 5834 5836 5838 5840 5841 5843 5845 5846 5848 5849 5850 5851 5852 5852 5853 5853 5854 5854 5853 5853 5853 5853 5852 5852 5851 5851 5850 5849 5848 5846 5845 5844 5842 5841 5839 5837 5836 5834
5795 5800 5806 5810 5812 5814 5817 5820 5823 5826 5829 5831 5833 5835 5837 5839 5840 5842 5844 5845 5846 5848 5848 5849 5850 5850 5850 5851 5851 5851 5850 5850 5850 5849 5849 5848 5847 5846 5845 5843 5842 5841 5839 5838 5836 5834 5832 5830 5828
5789 5795 5800 5803 5806 5808 5811 5815 5818 5821 5825 5828 5830 5832 5834 5836 5837 5839 5841 5842 5843 5845 5845 5846 5847 5847 5847 5847 5847 5847 5847 5847 5846 5846 5845 5844 5843 5842 5840 5839 5837 5836 5834 5833 5831 5829 5827 5825 5823
5782 5788 5792 5796 5799 5802 5806 5809 5813 5817 5821 5823 5826 5828 5830 5832 5834 5835 5837 5839 5840 5841 5842 5843 5843 5844 5844 5844 5844 5844 5843 5843 5842 5842 5841 5840 5838 5837 5836 5834 5833 5831 5829 5827 5825 5824 5822 5819 5817
5773 5779 5784 5788 5792 5796 5799 5803 5807 5811 5815 5818 5821 5824 5826 5828 5830 5832 5833 5835 5836 5837 5838 5839 5839 5840 5840 5840 5840 5839 5839 5839 5838 5837 5836 5835 5834 5832 5831 5829 5827 5826 5824 5822 5820 5818 5815 5813 5811
5765 5770 5775 5779 5784 5788 5793 5797 5801 5806 5809 5812 5816 5819 5822 5824 5826 5828 5829 5831 5832 5833 5834 5835 5835 5835 5836 5836 5835 5835 5835 5834 5833 5832 5831 5830 5828 5827 5826 5824 5822 5820 5818 5816 5814 5812 5809 5807 5805
5754 5760 5765 5771 5776 5781 5785 5790 5796 5800 5802 5807 5810 5814 5817 5819 5821 5823 5825 5826 5827 5828 5829 5830 5830 5831 5831 5831 5831 5830 5830 5829 5828 5827 5826 5824 5823 5821 5820 5818 5816 5814 5812 5810 5807 5805 5803 5801 5798
5744 5749 5756 5764 5769 5773 5778 5785 5790 5792 5796 5800 5804 5808 5811 5814 5816 5818 5820 5821 5822 5823 5824 5825 5825 5826 5826 5826 5825 5825 5824 5823 5822 5821 5820 5818 5817 5815 5814 5812 5810 5808 5806 5803 5801 5799 5796 5794 5792
5732 5740 5748 5756 5760 5764 5769 5777 5783 5784 5789 5793 5797 5801 5804 5807 5810 5812 5814 5816 5817 5818 5819 5820 5820 5820 5820 5820 5820 5819 5819 5818 5816 5815 5814 5812 5811 5809 5807 5806 5804 5802 5799 5797 5795 5792 5790 5787 5785
5726 5734 5741 5747 5752 5756 5760 5768 5774 5776 5781 5786 5790 5794 5798 5801 5804 5806 5808 5810 5811 5812 5813 5814 5814 5814 5814 5814 5814 5813 5812 5811 5810 5809 5807 5806 5804 5803 5801 5799 5797 5795 5793 5791 5788 5786 5783 5781 5778
5718 5724 5731 5738 5742 5746 5750 5757 5764 5767 5772 5778 5782 5786 5791 5794 5796 5798 5801 5803 5805 5806 5807 5808 5808 5808 5808 5808 5807 5807 5806 5805 5804 5802 5801 5799 5798 5796 5794 5792 5791 5789 5786 5784 5782 5779 5776 5774 5772
5705 5712 5720 5726 5731 5735 5740 5746 5753 5758 5763 5770 5775 5779 5783 5786 5789 5791 5793 5796 5798 5799 5800 5801 5801 5801 5801 5801 5801 5800 5800 5799 5797 5796 5794 5793 5791 5790 5788 5786 5784 5782 5780 5777 5775 5772 5770 5767 5765
5694 5703 5711 5717 5721 5724 5729 5735 5743 5750 5754 5760 5766 5771 5775 5778 5782 5784 5786 5788 5790 5792 5793 5794 5794 5794 5794 5794 5794 5793 5793 5792 5790 5789 5787 5786 5785 5783 5781 5779 5777 5775 5773 5770 5768 5765 5763 5760 5758
5686 5696 5701 5705 5709 5713 5718 5722 5734 5741 5746 5752 5758 5762 5767 5770 5773 5776 5778 5780 5783 5784 5785 5786 5787 5787 5787 5787 5786 5786 5786 5785 5783 5782 5781 5779 5778 5776 5774 5772 5770 5768 5766 5763 5761 5758 5756 5753 5751
5678 5686 5690 5694 5697 5702 5707 5710 5723 5731 5737 5744 5750 5754 5758 5761 5764 5767 5770 5772 5774 5776 5777 5778 5779 5779 5779 5779 5779 5779 5778 5778 5776 5775 5773 5772 5771 5769 5767 5765 5763 5761 5759 5756 5754 5751 5749 5746 5744
5666 5672 5677 5681 5684 5688 5699 5701 5709 5723 5731 5737 5742 5745 5749 5752 5755 5758 5761 5763 5765 5767 5769 5770 5771 5771 5771 5772 5771 5771 5771 5770 5768 5767 5766 5765 5763 5761 5759 5757 5756 5754 5751 5749 5747 5744 5742 5739 5736
5652 5659 5665 5667 5670 5678 5690 5690 5699 5716 5724 5729 5733 5736 5739 5743 5746 5749 5752 5755 5757 5759 5760 5761 5762 5763 5763 5764 5764 5763 5763 5762 5761 5760 5758 5757 5756 5754 5752 5750 5748 5746 5744 5742 5740 5737 5735 5732 5729
5641 5649 5655 5659 5664 5673 5678 5681 5694 5706 5715 5719 5723 5726 5729 5733 5737 5740 5743 5746 5748 5750 5751 5753 5754 5755 5755 5755 5755 5755 5755 5754 5753 5752 5751 5750 5748 5746 5744 5743 5741 5739 5737 5735 5732 5730 5727 5724 5721
5630 5636 5646 5651 5655 5661 5665 5675 5687 5695 5704 5710 5714 5717 5721 5724 5728 5731 5734 5737 5739 5741 5743 5744 5745 5746 5747 5747 5747 5747 5747 5746 5745 5744 5743 5742 5740 5739 5737 5735 5733 5731 5729 5727 5725 5722 5719 5716 5713
5621 5629 5634 5638 5644 5649 5656 5666 5678 5687 5695 5701 5705 5708 5712 5715 5719 5722 5725 5728 5730 5732 5734 5735 5737 5738 5738 5739 5739 5739 5738 5738 5737 5736 5735 5734 5732 5731 5729 5727 5726 5724 5721 5719 5717 5714 5711 5708 5705
5609 5616 5622 5629 5635 5642 5648 5661 5673 5680 5686 5692 5696 5699 5703 5706 5710 5713 5716 5719 5721 5723 5725 5726 5728 5729 5730 5730 5731 5730 5730 5729 5729 5728 5727 5726 5724 5723 5721 5719 5718 5716 5714 5711 5709 5706 5703 5700 5697
5599 5606 5614 5621 5627 5634 5641 5655 5663 5671 5677 5682 5686 5690 5694 5697 5701 5704 5707 5710 5712 5714 5716 5718 5719 5720 5721 5722 5722 5722 5722 5721 5721 5720 5719 5717 5716 5715 5713 5712 5710 5708 5705 5703 5700 5697 5694 5691 5688